Time,TemperatureF,DewpointF,PressureIn,WindDirection,WindDirectionDegrees,WindSpeedMPH,WindSpeedGustMPH,Humidity,HourlyPrecipIn,Conditions,Clouds,dailyrainin,SoftwareType,DateUTC
2013-03-08 00:13:00,40.3,33.3,29.96,ENE,67,0.0,-999.0,76,-99.99,,,0.00,Acu-Link.com,2013-03-08 05:13:00,
2013-03-08 00:28:00,40.6,32.6,29.95,ENE,67,1.1,-999.0,73,-99.99,,,0.00,Acu-Link.com,2013-03-08 05:28:00,
2013-03-08 00:44:00,43.3,32.3,29.97,SE,135,2.7,-999.0,65,-99.99,,,0.00,Acu-Link.com,2013-03-08 05:44:00,
2013-03-08 00:59:00,42.6,31.3,29.98,NE,45,1.7,-999.0,64,-99.99,,,0.00,Acu-Link.com,2013-03-08 05:59:00,
2013-03-08 01:14:00,41.7,31.2,29.98,ESE,112,2.7,-999.0,66,-99.99,,,0.00,Acu-Link.com,2013-03-08 06:14:00,
2013-03-08 01:29:00,41.0,30.9,29.99,NE,45,2.2,-999.0,67,-99.99,,,0.00,Acu-Link.com,2013-03-08 06:29:00,
2013-03-08 01:44:00,40.6,30.9,29.98,West,270,0.0,-999.0,68,-99.99,,,0.00,Acu-Link.com,2013-03-08 06:44:00,
2013-03-08 01:59:00,40.3,31.0,29.99,SE,135,2.2,-999.0,69,-99.99,,,0.00,Acu-Link.com,2013-03-08 06:59:00,
2013-03-08 02:14:00,40.1,30.4,29.99,ENE,67,2.7,-999.0,68,-99.99,,,0.00,Acu-Link.com,2013-03-08 07:14:00,
2013-03-08 02:29:00,39.7,29.7,29.99,NNE,22,1.1,-999.0,67,-99.99,,,0.00,Acu-Link.com,2013-03-08 07:29:00,
2013-03-08 02:44:00,39.6,29.6,29.99,East,90,2.2,-999.0,67,-99.99,,,0.00,Acu-Link.com,2013-03-08 07:44:00,
2013-03-08 03:00:00,39.2,29.2,29.99,ESE,112,2.7,-999.0,67,-99.99,,,0.00,Acu-Link.com,2013-03-08 08:00:00,
2013-03-08 03:15:00,38.8,28.4,30.00,West,270,1.7,-999.0,66,-99.99,,,0.00,Acu-Link.com,2013-03-08 08:15:00,
2013-03-08 03:30:00,38.5,27.4,30.00,NE,45,3.2,-999.0,64,-99.99,,,0.00,Acu-Link.com,2013-03-08 08:30:00,
2013-03-08 03:45:00,38.1,27.4,30.01,ENE,67,1.1,-999.0,65,-99.99,,,0.00,Acu-Link.com,2013-03-08 08:45:00,
2013-03-08 04:00:00,37.8,27.1,30.01,NE,45,2.2,-999.0,65,-99.99,,,0.00,Acu-Link.com,2013-03-08 09:00:00,
2013-03-08 04:15:00,37.4,26.7,30.02,ENE,67,2.2,-999.0,65,-99.99,,,0.00,Acu-Link.com,2013-03-08 09:15:00,
2013-03-08 04:30:00,36.9,26.6,30.01,ESE,112,0.0,-999.0,66,-99.99,,,0.00,Acu-Link.com,2013-03-08 09:30:00,
2013-03-08 04:45:00,36.7,26.4,30.01,South,180,1.1,-999.0,66,-99.99,,,0.00,Acu-Link.com,2013-03-08 09:45:00,
2013-03-08 05:00:00,36.3,26.4,30.02,East,90,0.0,-999.0,67,-99.99,,,0.00,Acu-Link.com,2013-03-08 10:00:00,
2013-03-08 05:16:00,35.6,26.5,30.03,NE,45,0.0,-999.0,69,-99.99,,,0.00,Acu-Link.com,2013-03-08 10:16:00,
2013-03-08 05:31:00,35.2,26.4,30.03,North,0,1.7,-999.0,70,-99.99,,,0.00,Acu-Link.com,2013-03-08 10:31:00,
2013-03-08 05:46:00,35.2,26.4,30.03,East,90,0.0,-999.0,70,-99.99,,,0.00,Acu-Link.com,2013-03-08 10:46:00,
2013-03-08 06:01:00,35.2,26.1,30.02,ESE,112,0.0,-999.0,69,-99.99,,,0.00,Acu-Link.com,2013-03-08 11:01:00,
2013-03-08 06:16:00,35.1,26.0,30.04,SE,135,1.1,-999.0,69,-99.99,,,0.00,Acu-Link.com,2013-03-08 11:16:00,
2013-03-08 06:31:00,34.7,25.9,30.04,NE,45,1.1,-999.0,70,-99.99,,,0.00,Acu-Link.com,2013-03-08 11:31:00,
2013-03-08 06:46:00,34.3,25.9,30.04,SSW,202,0.0,-999.0,71,-99.99,,,0.00,Acu-Link.com,2013-03-08 11:46:00,
2013-03-08 07:01:00,34.3,25.9,30.06,WSW,247,1.1,-999.0,71,-99.99,,,0.00,Acu-Link.com,2013-03-08 12:01:00,
2013-03-08 07:16:00,34.3,25.9,30.05,West,270,1.7,-999.0,71,-99.99,,,0.00,Acu-Link.com,2013-03-08 12:16:00,
2013-03-08 07:31:00,35.1,26.0,30.07,NNE,22,1.7,-999.0,69,-99.99,,,0.00,Acu-Link.com,2013-03-08 12:31:00,
2013-03-08 07:47:00,36.1,26.6,30.06,NNE,22,2.2,-999.0,68,-99.99,,,0.00,Acu-Link.com,2013-03-08 12:47:00,
2013-03-08 08:02:00,37.8,26.7,30.07,WSW,247,1.1,-999.0,64,-99.99,,,0.00,Acu-Link.com,2013-03-08 13:02:00,
2013-03-08 08:17:00,38.5,26.6,30.08,NE,45,3.7,-999.0,62,-99.99,,,0.00,Acu-Link.com,2013-03-08 13:17:00,
2013-03-08 08:32:00,39.6,26.5,30.07,ENE,67,2.7,-999.0,59,-99.99,,,0.00,Acu-Link.com,2013-03-08 13:32:00,
2013-03-08 08:47:00,41.2,26.7,30.08,NNE,22,7.3,-999.0,56,-99.99,,,0.00,Acu-Link.com,2013-03-08 13:47:00,
2013-03-08 09:02:00,42.4,26.9,30.09,NE,45,2.2,-999.0,54,-99.99,,,0.00,Acu-Link.com,2013-03-08 14:02:00,
2013-03-08 09:17:00,43.3,26.9,30.08,NE,45,4.7,-999.0,52,-99.99,,,0.00,Acu-Link.com,2013-03-08 14:17:00,
2013-03-08 09:32:00,43.5,26.6,30.08,East,90,4.7,-999.0,51,-99.99,,,0.00,Acu-Link.com,2013-03-08 14:32:00,
2013-03-08 09:47:00,45.5,28.4,30.07,ENE,67,2.7,-999.0,51,-99.99,,,0.00,Acu-Link.com,2013-03-08 14:47:00,
2013-03-08 10:03:00,46.6,27.5,30.07,SE,135,2.7,-999.0,47,-99.99,,,0.00,Acu-Link.com,2013-03-08 15:03:00,
2013-03-08 10:18:00,47.5,28.3,30.07,SSE,157,0.0,-999.0,47,-99.99,,,0.00,Acu-Link.com,2013-03-08 15:18:00,
2013-03-08 10:33:00,48.9,27.4,30.07,North,0,2.2,-999.0,43,-99.99,,,0.00,Acu-Link.com,2013-03-08 15:33:00,
2013-03-08 10:48:00,49.5,26.8,30.08,WSW,247,2.7,-999.0,41,-99.99,,,0.00,Acu-Link.com,2013-03-08 15:48:00,
2013-03-08 11:03:00,49.8,27.1,30.08,ESE,112,2.7,-999.0,41,-99.99,,,0.00,Acu-Link.com,2013-03-08 16:03:00,
2013-03-08 11:18:00,51.4,27.9,30.06,NE,45,2.7,-999.0,40,-99.99,,,0.00,Acu-Link.com,2013-03-08 16:18:00,
2013-03-08 11:33:00,52.9,27.3,30.06,North,0,4.2,-999.0,37,-99.99,,,0.00,Acu-Link.com,2013-03-08 16:33:00,
2013-03-08 11:48:00,52.3,27.5,30.06,East,90,1.7,-999.0,38,-99.99,,,0.00,Acu-Link.com,2013-03-08 16:48:00,
2013-03-08 12:03:00,54.1,27.7,30.06,NE,45,2.2,-999.0,36,-99.99,,,0.00,Acu-Link.com,2013-03-08 17:03:00,
2013-03-08 12:19:00,54.7,26.2,30.06,WNW,292,3.7,-999.0,33,-99.99,,,0.00,Acu-Link.com,2013-03-08 17:19:00,
2013-03-08 12:34:00,56.3,22.8,30.05,East,90,3.2,-999.0,27,-99.99,,,0.00,Acu-Link.com,2013-03-08 17:34:00,
2013-03-08 12:49:00,57.6,23.0,30.04,NNE,22,2.7,-999.0,26,-99.99,,,0.00,Acu-Link.com,2013-03-08 17:49:00,
2013-03-08 13:04:00,56.3,22.8,30.04,SW,225,4.2,-999.0,27,-99.99,,,0.00,Acu-Link.com,2013-03-08 18:04:00,
2013-03-08 13:19:00,57.9,23.2,30.03,NE,45,4.7,-999.0,26,-99.99,,,0.00,Acu-Link.com,2013-03-08 18:19:00,
2013-03-08 13:34:00,58.8,24.9,30.02,SW,225,4.2,-999.0,27,-99.99,,,0.00,Acu-Link.com,2013-03-08 18:34:00,
2013-03-08 13:49:00,57.9,24.1,30.01,South,180,1.1,-999.0,27,-99.99,,,0.00,Acu-Link.com,2013-03-08 18:49:00,
2013-03-08 14:04:00,59.0,24.2,30.00,NNE,22,2.7,-999.0,26,-99.99,,,0.00,Acu-Link.com,2013-03-08 19:04:00,
2013-03-08 14:19:00,59.2,22.4,29.99,WSW,247,4.2,-999.0,24,-99.99,,,0.00,Acu-Link.com,2013-03-08 19:19:00,
2013-03-08 14:35:00,61.0,22.9,29.99,East,90,4.2,-999.0,23,-99.99,,,0.00,Acu-Link.com,2013-03-08 19:35:00,
2013-03-08 14:50:00,59.9,23.0,29.99,WNW,292,2.7,-999.0,24,-99.99,,,0.00,Acu-Link.com,2013-03-08 19:50:00,
2013-03-08 15:05:00,61.2,23.1,29.98,WSW,247,2.2,-999.0,23,-99.99,,,0.00,Acu-Link.com,2013-03-08 20:05:00,
2013-03-08 15:20:00,61.0,21.9,29.97,East,90,7.8,-999.0,22,-99.99,,,0.00,Acu-Link.com,2013-03-08 20:20:00,
2013-03-08 15:35:00,61.2,22.1,29.96,West,270,2.2,-999.0,22,-99.99,,,0.00,Acu-Link.com,2013-03-08 20:35:00,
2013-03-08 15:50:00,60.6,20.5,29.97,ESE,112,3.7,-999.0,21,-99.99,,,0.00,Acu-Link.com,2013-03-08 20:50:00,
2013-03-08 16:05:00,62.2,21.8,29.96,ENE,67,1.7,-999.0,21,-99.99,,,0.00,Acu-Link.com,2013-03-08 21:05:00,
2013-03-08 16:20:00,61.3,19.9,29.96,West,270,4.7,-999.0,20,-99.99,,,0.00,Acu-Link.com,2013-03-08 21:20:00,
2013-03-08 16:35:00,61.3,21.0,29.95,East,90,3.2,-999.0,21,-99.99,,,0.00,Acu-Link.com,2013-03-08 21:35:00,
2013-03-08 16:51:00,61.5,20.1,29.95,SSW,202,0.0,-999.0,20,-99.99,,,0.00,Acu-Link.com,2013-03-08 21:51:00,
2013-03-08 17:06:00,61.9,19.2,29.97,East,90,2.7,-999.0,19,-99.99,,,0.00,Acu-Link.com,2013-03-08 22:06:00,
2013-03-08 17:21:00,60.8,19.5,29.96,NNE,22,1.1,-999.0,20,-99.99,,,0.00,Acu-Link.com,2013-03-08 22:21:00,
2013-03-08 17:36:00,59.9,19.9,29.97,NE,45,2.2,-999.0,21,-99.99,,,0.00,Acu-Link.com,2013-03-08 22:36:00,
2013-03-08 17:51:00,58.8,20.1,29.97,East,90,3.2,-999.0,22,-99.99,,,0.00,Acu-Link.com,2013-03-08 22:51:00,
2013-03-08 18:06:00,57.6,23.0,29.97,WSW,247,2.2,-999.0,26,-99.99,,,0.00,Acu-Link.com,2013-03-08 23:06:00,
2013-03-08 18:21:00,56.5,24.6,29.97,NNE,22,0.0,-999.0,29,-99.99,,,0.00,Acu-Link.com,2013-03-08 23:21:00,
2013-03-08 18:36:00,54.5,26.0,29.98,WSW,247,0.0,-999.0,33,-99.99,,,0.00,Acu-Link.com,2013-03-08 23:36:00,
2013-03-08 18:51:00,52.7,26.5,29.99,ESE,112,0.0,-999.0,36,-99.99,,,0.00,Acu-Link.com,2013-03-08 23:51:00,
2013-03-08 19:07:00,50.5,27.7,29.99,South,180,0.0,-999.0,41,-99.99,,,0.00,Acu-Link.com,2013-03-09 00:07:00,
2013-03-08 19:22:00,49.1,28.1,30.00,NE,45,0.0,-999.0,44,-99.99,,,0.00,Acu-Link.com,2013-03-09 00:22:00,
2013-03-08 19:37:00,47.5,28.8,30.01,ENE,67,0.0,-999.0,48,-99.99,,,0.00,Acu-Link.com,2013-03-09 00:37:00,
2013-03-08 19:52:00,46.6,28.0,30.00,East,90,0.0,-999.0,48,-99.99,,,0.00,Acu-Link.com,2013-03-09 00:52:00,
2013-03-08 20:07:00,45.3,28.3,30.01,West,270,0.0,-999.0,51,-99.99,,,0.00,Acu-Link.com,2013-03-09 01:07:00,
2013-03-08 20:22:00,44.2,29.5,30.03,East,90,0.0,-999.0,56,-99.99,,,0.00,Acu-Link.com,2013-03-09 01:22:00,
2013-03-08 20:37:00,43.7,29.5,30.03,SSW,202,0.0,-999.0,57,-99.99,,,0.00,Acu-Link.com,2013-03-09 01:37:00,
2013-03-08 20:52:00,42.8,29.1,30.03,ENE,67,0.0,-999.0,58,-99.99,,,0.00,Acu-Link.com,2013-03-09 01:52:00,
2013-03-08 21:07:00,42.3,28.2,30.03,ENE,67,0.0,-999.0,57,-99.99,,,0.00,Acu-Link.com,2013-03-09 02:07:00,
2013-03-08 21:22:00,41.7,27.6,30.03,East,90,0.0,-999.0,57,-99.99,,,0.00,Acu-Link.com,2013-03-09 02:22:00,
2013-03-08 21:38:00,41.2,28.4,30.04,NNE,22,0.0,-999.0,60,-99.99,,,0.00,Acu-Link.com,2013-03-09 02:38:00,
2013-03-08 21:53:00,40.6,27.8,30.03,NE,45,0.0,-999.0,60,-99.99,,,0.00,Acu-Link.com,2013-03-09 02:53:00,
2013-03-08 22:08:00,40.5,27.7,30.03,NE,45,0.0,-999.0,60,-99.99,,,0.00,Acu-Link.com,2013-03-09 03:08:00,
2013-03-08 22:23:00,40.1,28.1,30.03,ESE,112,0.0,-999.0,62,-99.99,,,0.00,Acu-Link.com,2013-03-09 03:23:00,
2013-03-08 22:38:00,39.6,28.4,30.04,ESE,112,0.0,-999.0,64,-99.99,,,0.00,Acu-Link.com,2013-03-09 03:38:00,
2013-03-08 22:53:00,39.0,29.3,30.04,ENE,67,0.0,-999.0,68,-99.99,,,0.00,Acu-Link.com,2013-03-09 03:53:00,
2013-03-08 23:08:00,39.0,29.3,30.03,ENE,67,0.0,-999.0,68,-99.99,,,0.00,Acu-Link.com,2013-03-09 04:08:00,
2013-03-08 23:23:00,38.8,28.4,30.03,ENE,67,0.0,-999.0,66,-99.99,,,0.00,Acu-Link.com,2013-03-09 04:23:00,
2013-03-08 23:38:00,38.5,28.1,30.03,NE,45,0.0,-999.0,66,-99.99,,,0.00,Acu-Link.com,2013-03-09 04:38:00,
2013-03-08 23:54:00,38.5,28.5,30.04,West,270,0.0,-999.0,67,-99.99,,,0.00,Acu-Link.com,2013-03-09 04:54:00,